Weather in Schastlivoe

Russia / Republic of Crimea     44°34′26″N   34°04′08″E
temp.,
°C
wind,
m/s
gust,
m/s
humid.,
%
clouds,
%
prec.,
mm/h
press.,
hPa
HPBL,
m
4 december, sat
sat400:00+8wsw5139592 0.9 1015790
03:00+9wsw3109596 1.6 1014574
06:00+8sw489899 0.6 1014510
09:00+8wsw1292100 0.9 101460
12:00+10s3677100 0.1 1012542
15:00+10sse2473100 0.1 1010363
18:00+8sw2482100 0.7 1009285
21:00+8s2696100 1.9 1008417
5 december, sun
sun500:00+8sw4899100 4.3 1007718
03:00+8wnw239896 5.3 1007244
06:00+6nnw349698 0.0 1009297
09:00+5nnw239247 0.0 1012197
12:00+6nnw018765 0.0 1013364
15:00+8w117397 0.0 1013437
18:00+5e228876 0.0 101449
21:00+5ese239657 0.0 1016160
6 december, mon
mon600:00+4ese239758 0.0 101699
03:00+5ese339399 0.0 101796
06:00+6ese348999 0.0 101699
09:00+7ese3590100 0.0 1017149
12:00+9ese348474 0.3 1016188
15:00+11ese357781 0.4 1015320
18:00+8e348286 0.0 101655
21:00+9e3478100 0.0 101662
7 december, tue
tue700:00+9e3371100 0.0 101643
03:00+9e336399 0.0 101534
06:00+9e3363100 0.0 101435
09:00+10e3362100 0.0 101344
12:00+14e3450100 0.0 1010204
15:00+14e245090 0.0 1008164
18:00+11ene345287 0.0 100648
21:00+10e355698 0.0 100578
8 december, wed
wed800:00+10e33585 0.0 100437
03:00+10e336068 0.0 100337
06:00+10ese346091 0.0 100260
09:00+9sw117399 0.0 100213
12:00+11sse3469100 0.0 1002521
15:00+9s2381100 0.2 1002406
18:00+7w5996100 3.4 1004874
21:00+6w5996100 6.9 1007818